CW3699 Weather Reports


Display with metric or nautical units.
time (UTC)temp
F
wind
direction
speed
MPH
gust
MPH
rain 1hr
in
rain 24hr
in
rain mn
in
humidity
%
barometer
mb
20260902045408 65 127 0.0 1.0 0.00 0.00 0.00 97 1011.8
20260902044408 65 130 0.0 1.0 0.00 0.00 0.00 97 1011.8
20260902043908 65 122 0.0 1.0 0.00 0.00 0.00 96 1011.9
20260902043408 65 118 0.0 1.0 0.00 0.00 0.00 96 1011.9
20260902042908 65 106 0.0 1.0 0.00 0.00 0.00 96 1011.9
20260902042408 65 110 0.0 1.0 0.00 0.00 0.00 96 1012.0
20260902041907 65 122 0.0 1.0 0.00 0.00 0.00 96 1012.0
20260902041408 65 117 0.0 1.0 0.00 0.00 0.00 96 1012.0
20260902040908 65 102 0.0 1.0 0.00 0.00 0.00 96 1012.1
20260902040408 65 116 0.0 1.0 0.00 0.00 0.00 96 1012.1
20260902035407 65 103 0.0 1.0 0.00 0.00 0.00 96 1012.1
20260902034907 65 128 0.0 1.0 0.00 0.00 0.00 96 1012.2
20260902033908 65 146 0.0 1.0 0.00 0.00 0.00 96 1012.3
20260902032908 65 157 0.0 1.0 0.00 0.00 0.00 96 1012.3
20260902031908 65 138 0.0 1.0 0.00 0.00 0.00 96 1012.3
20260902031408 65 193 0.0 1.0 0.00 0.00 0.00 96 1012.4
20260902030908 66 102 0.0 1.0 0.00 0.00 0.00 96 1012.4
20260902025908 66 119 0.0 1.0 0.00 0.00 0.00 96 1012.3
20260902025408 66 93 0.0 1.0 0.00 0.00 0.00 96 1012.3
20260902024908 66 149 0.0 1.0 0.00 0.00 0.00 96 1012.3
20260902023909 66 121 0.0 1.0 0.00 0.00 0.00 96 1012.3
20260902023408 66 142 0.0 1.0 0.00 0.00 0.00 96 1012.3
20260902022908 66 117 0.0 2.0 0.00 0.00 0.00 96 1012.4
20260902022408 66 147 0.0 2.0 0.00 0.00 0.00 95 1012.4
20260902021908 66 144 1.0 2.0 0.00 0.00 0.00 96 1012.5
20260902021407 66 105 0.0 1.0 0.00 0.00 0.00 95 1012.5
20260902020908 66 143 1.0 2.0 0.00 0.00 0.00 95 1012.6
20260902020408 66 115 0.0 1.0 0.00 0.00 0.00 95 1012.6
20260902015408 67 120 0.0 1.0 0.00 0.00 0.00 95 1012.6
20260902014908 67 149 0.0 1.0 0.00 0.00 0.00 95 1012.5
20260902014408 67 135 0.0 1.0 0.00 0.00 0.00 95 1012.6
20260902013909 67 74 0.0 1.0 0.00 0.00 0.00 95 1012.6
20260902013408 67 94 0.0 1.0 0.00 0.00 0.00 95 1012.5
20260902012909 68 61 0.0 1.0 0.00 0.00 0.00 96 1012.4
20260902012408 68 115 0.0 1.0 0.00 0.00 0.00 96 1012.4
20260902011908 68 90 0.0 1.0 0.00 0.00 0.00 96 1012.4
20260902010909 68 105 0.0 1.0 0.00 0.00 0.00 96 1012.3
20260902010408 68 136 0.0 1.0 0.00 0.00 0.00 96 1012.3
20260902005914 68 69 0.0 1.0 0.00 0.00 0.00 96 1012.2
20260902003907 68 97 0.0 1.0 0.00 0.00 0.00 95 1012.0
20260902003408 68 99 0.0 1.0 0.00 0.00 0.00 95 1012.0
20260902002908 67 42 0.0 1.0 0.00 0.00 0.00 95 1012.1
20260902002408 67 130 0.0 1.0 0.00 0.00 0.00 95 1012.1
20260902001908 67 120 0.0 1.0 0.00 0.00 0.00 95 1012.1
20260902001415 67 142 0.0 1.0 0.00 0.00 0.00 95 1012.2
20260902000908 68 75 0.0 2.0 0.00 0.00 0.00 95 1012.1
20260901235914 68 135 0.0 1.0 0.00 0.00 0.00 95 1012.2
20260901234908 67 98 1.0 2.0 0.00 0.00 0.00 95 1012.2
20260901234415 67 136 1.0 2.0 0.00 0.00 0.00 95 1012.1
20260901233907 67 108 0.0 2.0 0.00 0.00 0.00 95 1012.1
20260901233408 67 100 1.0 2.0 0.00 0.00 0.00 95 1012.2
20260901232914 67 119 1.0 2.0 0.00 0.00 0.00 94 1012.3
20260901232408 67 137 1.0 2.0 0.00 0.00 0.00 94 1012.3
20260901231408 67 136 1.0 2.0 0.00 0.00 0.00 94 1012.4
20260901230908 67 127 0.0 2.0 0.00 0.00 0.00 94 1012.4
20260901230408 67 127 0.0 2.0 0.00 0.00 0.00 93 1012.4
20260901225408 67 66 1.0 2.0 0.00 0.00 0.00 93 1012.6
20260901224908 67 74 1.0 2.0 0.00 0.00 0.00 93 1012.6
20260901224408 67 89 1.0 2.0 0.00 0.00 0.00 92 1012.7
20260901223907 68 83 1.0 2.0 0.00 0.00 0.00 91 1012.8
20260901223408 68 61 1.0 2.0 0.00 0.00 0.00 92 1012.7
20260901222914 68 60 1.0 2.0 0.00 0.00 0.00 91 1012.7
20260901221907 69 46 1.0 2.0 0.00 0.00 0.00 89 1012.7
20260901221408 69 35 1.0 2.0 0.00 0.00 0.00 89 1012.7
20260901220408 70 73 0.0 2.0 0.00 0.00 0.00 90 1012.7
20260901215908 70 46 0.0 3.0 0.00 0.00 0.00 91 1012.7
20260901215408 69 128 1.0 2.0 0.00 0.00 0.00 91 1012.7
20260901214907 69 80 1.0 2.0 0.00 0.00 0.00 91 1012.6
20260901213908 69 108 1.0 2.0 0.00 0.00 0.00 92 1012.7
20260901213408 68 101 1.0 2.0 0.00 0.00 0.00 93 1012.8
20260901212908 68 83 1.0 2.0 0.00 0.00 0.00 92 1012.9
20260901212408 68 83 1.0 3.0 0.00 0.00 0.00 91 1012.9
20260901211909 68 90 1.0 5.0 0.00 0.00 0.00 92 1013.0
20260901210908 69 58 1.0 3.0 0.00 0.00 0.00 91 1013.1
20260901205907 69 58 1.0 3.0 0.00 0.00 0.00 90 1013.2
20260901205407 70 83 1.0 3.0 0.00 0.00 0.00 88 1013.2
20260901204907 71 64 1.0 3.0 0.00 0.00 0.00 87 1013.1
20260901204407 72 54 1.0 3.0 0.00 0.00 0.00 86 1013.1
20260901203907 72 124 1.0 3.0 0.00 0.00 0.00 87 1013.2
20260901203408 72 124 1.0 3.0 0.00 0.00 0.00 87 1013.2
20260901202908 72 97 1.0 3.0 0.00 0.00 0.00 88 1013.3
20260901202407 71 113 1.0 3.0 0.00 0.00 0.00 88 1013.3
20260901201908 71 120 1.0 3.0 0.00 0.00 0.00 89 1013.2
20260901201408 71 47 1.0 3.0 0.00 0.00 0.00 88 1013.4
20260901200407 71 36 1.0 3.0 0.00 0.00 0.00 89 1013.5
20260901195907 70 54 1.0 3.0 0.00 0.00 0.00 90 1013.6
20260901195413 70 84 1.0 2.0 0.00 0.00 0.00 90 1013.7
20260901194908 70 72 1.0 3.0 0.00 0.00 0.00 89 1013.7
20260901194408 70 31 1.0 3.0 0.00 0.00 0.00 88 1013.7
20260901193913 71 40 1.0 3.0 0.00 0.00 0.00 87 1013.7
20260901193408 71 38 1.0 3.0 0.00 0.00 0.00 87 1013.7
20260901192907 71 40 1.0 3.0 0.00 0.00 0.00 86 1013.7
20260901191908 72 85 1.0 2.0 0.00 0.00 0.00 88 1013.8
20260901191408 71 36 1.0 3.0 0.00 0.00 0.00 88 1014.0
20260901190913 71 45 0.0 2.0 0.00 0.00 0.00 87 1013.9
20260901190408 72 49 1.0 3.0 0.00 0.00 0.00 86 1014.0
20260901185908 72 21 1.0 3.0 0.00 0.00 0.00 85 1014.0
20260901184907 73 27 1.0 3.0 0.00 0.00 0.00 87 1014.1
20260901184407 73 37 0.0 2.0 0.00 0.00 0.00 86 1014.2
20260901183913 72 144 1.0 3.0 0.00 0.00 0.00 87 1014.2
20260901183407 72 94 1.0 2.0 0.00 0.00 0.00 87 1014.3
20260901182908 72 120 1.0 2.0 0.00 0.00 0.00 86 1014.3
20260901182414 72 51 1.0 2.0 0.00 0.00 0.00 87 1014.4
20260901181908 72 39 1.0 3.0 0.00 0.00 0.00 86 1014.4
20260901181407 72 62 1.0 2.0 0.00 0.00 0.00 88 1014.4
20260901180915 72 29 1.0 2.0 0.00 0.00 0.00 87 1014.4
20260901180407 72 56 0.0 2.0 0.00 0.00 0.00 88 1014.5
20260901175414 72 54 0.0 3.0 0.00 0.00 0.00 87 1014.5
20260901174907 72 15 1.0 2.0 0.00 0.00 0.00 88 1014.5
20260901174407 71 20 0.0 2.0 0.00 0.00 0.00 88 1014.5
20260901173914 71 77 0.0 2.0 0.00 0.00 0.00 90 1014.6
20260901173408 71 59 0.0 2.0 0.00 0.00 0.00 89 1014.7
20260901172908 70 28 1.0 2.0 0.00 0.00 0.00 89 1014.7
20260901172413 70 31 1.0 2.0 0.00 0.00 0.00 89 1014.7
20260901171907 70 32 1.0 2.0 0.00 0.00 0.00 90 1014.7
20260901171408 70 8 1.0 3.0 0.00 0.00 0.00 90 1014.7
20260901170914 70 39 1.0 2.0 0.00 0.00 0.00 90 1014.7
20260901170408 69 43 0.0 2.0 0.00 0.00 0.00 90 1014.7
20260901165908 69 31 0.0 2.0 0.00 0.00 0.00 90 1014.7
20260901165414 69 62 1.0 2.0 0.00 0.00 0.00 91 1014.7
20260901164908 69 18 1.0 2.0 0.00 0.00 0.00 92 1014.6
20260901164407 69 53 1.0 2.0 0.00 0.00 0.00 92 1014.6
20260901163914 69 29 1.0 2.0 0.00 0.00 0.00 93 1014.6
20260901163407 69 65 0.0 3.0 0.00 0.00 0.00 91 1014.5
20260901162908 69 26 1.0 3.0 0.00 0.00 0.00 92 1014.4
20260901161907 69 73 0.0 2.0 0.00 0.00 0.00 95 1014.4
20260901161407 69 124 1.0 2.0 0.00 0.00 0.00 95 1014.5
20260901160907 68 42 1.0 3.0 0.00 0.00 0.00 96 1014.5
20260901160407 68 91 1.0 2.0 0.00 0.00 0.00 97 1014.5
20260901155908 67 111 1.0 2.0 0.00 0.00 0.00 96 1014.5
20260901155414 67 46 0.0 2.0 0.00 0.00 0.00 97 1014.5
20260901154908 67 41 0.0 2.0 0.00 0.00 0.00 97 1014.6
20260901153914 66 36 1.0 2.0 0.00 0.00 0.00 97 1014.5
20260901153407 67 55 1.0 2.0 0.00 0.00 0.00 97 1014.5
20260901152407 67 40 1.0 2.0 0.00 0.00 0.00 97 1014.5
20260901151907 67 49 0.0 2.0 0.00 0.00 0.00 97 1014.6
20260901151407 66 105 0.0 1.0 0.00 0.00 0.00 97 1014.8
20260901150907 66 97 0.0 2.0 0.00 0.00 0.00 97 1014.9
20260901150407 66 38 0.0 2.0 0.00 0.00 0.00 97 1014.9
20260901145908 66 57 0.0 1.0 0.00 0.00 0.00 97 1014.9
20260901145407 66 64 0.0 2.0 0.00 0.00 0.00 97 1014.8
20260901144908 66 55 0.0 2.0 0.00 0.00 0.00 98 1014.8
20260901144407 66 62 1.0 2.0 0.00 0.00 0.00 97 1014.8
20260901143907 66 50 1.0 2.0 0.00 0.00 0.00 97 1014.8
20260901143407 66 58 1.0 2.0 0.00 0.00 0.00 97 1014.7
20260901142407 66 135 1.0 2.0 0.00 0.00 0.00 97 1014.7
20260901141907 66 77 1.0 2.0 0.00 0.00 0.00 97 1014.8
20260901140407 66 28 1.0 2.0 0.00 0.01 0.00 98 1014.5
20260901135907 67 58 1.0 2.0 0.00 0.01 0.00 98 1014.6
20260901135407 67 35 1.0 2.0 0.00 0.02 0.00 98 1014.6
20260901134907 67 73 1.0 2.0 0.00 0.02 0.00 98 1014.6
20260901134407 67 171 1.0 2.0 0.00 0.03 0.00 98 1014.6
20260901133907 66 52 1.0 2.0 0.00 0.03 0.00 98 1014.5
20260901133407 66 82 1.0 2.0 0.00 0.03 0.00 98 1014.5
20260901132407 66 133 0.0 2.0 0.00 0.04 0.00 98 1014.5
20260901131907 66 146 1.0 2.0 0.00 0.04 0.00 98 1014.5
20260901131409 66 147 0.0 2.0 0.00 0.04 0.00 98 1014.6
20260901130908 66 120 1.0 2.0 0.00 0.04 0.00 98 1014.4
20260901130407 66 116 0.0 2.0 0.00 0.04 0.00 98 1014.4
20260901125407 66 93 0.0 2.0 0.00 0.04 0.00 98 1014.4
20260901124414 66 119 0.0 2.0 0.00 0.04 0.00 98 1014.3
20260901123907 66 104 1.0 2.0 0.00 0.04 0.00 98 1014.3
20260901123407 65 88 1.0 2.0 0.00 0.04 0.00 98 1014.3
20260901122407 65 157 1.0 2.0 0.00 0.04 0.00 98 1014.2
20260901121908 65 87 0.0 2.0 0.00 0.04 0.00 98 1014.1
20260901121414 65 151 0.0 2.0 0.00 0.04 0.00 98 1014.1
20260901120907 65 106 0.0 1.0 0.00 0.04 0.00 98 1014.1
20260901120407 65 85 0.0 1.0 0.00 0.04 0.00 98 1014.1
20260901115914 65 117 0.0 2.0 0.00 0.04 0.00 98 1014.1
20260901115407 65 122 0.0 1.0 0.00 0.04 0.00 98 1014.1
20260901114907 65 103 0.0 2.0 0.00 0.04 0.00 98 1014.1
20260901113907 65 105 0.0 2.0 0.00 0.04 0.00 98 1014.1
20260901113407 65 93 0.0 1.0 0.00 0.04 0.00 97 1014.0
20260901112913 65 140 0.0 1.0 0.00 0.04 0.00 97 1014.1
20260901111908 65 112 0.0 1.0 0.00 0.04 0.00 97 1014.1
20260901111407 65 70 0.0 1.0 0.00 0.04 0.00 97 1014.0
20260901110907 65 131 0.0 1.0 0.00 0.04 0.00 97 1013.9
20260901110407 65 84 0.0 1.0 0.00 0.04 0.00 97 1013.8
20260901105914 65 97 0.0 0.0 0.00 0.04 0.00 97 1013.8
20260901105407 65 134 0.0 1.0 0.00 0.04 0.00 97 1013.8
20260901104907 65 86 0.0 1.0 0.00 0.04 0.00 97 1013.8
20260901103907 65 89 0.0 0.0 0.00 0.04 0.00 97 1013.8
20260901102913 65 66 0.0 1.0 0.00 0.04 0.00 97 1013.7
20260901101907 65 93 0.0 0.0 0.00 0.04 0.00 97 1013.7
20260901101407 65 147 0.0 1.0 0.00 0.04 0.00 97 1013.7
20260901100907 65 126 0.0 1.0 0.00 0.04 0.00 97 1013.7
20260901100407 65 94 0.0 0.0 0.00 0.04 0.00 97 1013.6
20260901094907 65 114 0.0 0.0 0.00 0.04 0.00 97 1013.5
20260901094407 65 97 0.0 1.0 0.00 0.04 0.00 97 1013.5
20260901093907 65 123 0.0 0.0 0.00 0.04 0.00 97 1013.5
20260901093407 65 82 0.0 0.0 0.00 0.04 0.00 97 1013.5
20260901092407 65 115 0.0 1.0 0.00 0.04 0.00 97 1013.4
20260901091407 65 175 0.0 1.0 0.00 0.04 0.00 97 1013.4
20260901090407 65 132 0.0 1.0 0.00 0.04 0.00 97 1013.3
20260901085907 65 92 0.0 1.0 0.00 0.04 0.00 97 1013.3
20260901085407 65 103 0.0 1.0 0.00 0.04 0.00 97 1013.3
20260901084907 65 82 0.0 1.0 0.00 0.04 0.00 97 1013.3
20260901084407 65 100 0.0 1.0 0.00 0.04 0.00 97 1013.4
20260901083907 65 141 0.0 1.0 0.00 0.04 0.00 97 1013.4
20260901083407 65 86 0.0 1.0 0.00 0.04 0.00 97 1013.4
20260901082907 65 102 0.0 1.0 0.00 0.04 0.00 97 1013.3
20260901082407 65 107 0.0 1.0 0.00 0.04 0.00 97 1013.3
20260901080907 65 99 0.0 1.0 0.00 0.04 0.00 98 1013.2
20260901080407 65 109 0.0 1.0 0.00 0.04 0.00 98 1013.1
20260901075907 65 125 0.0 1.0 0.00 0.04 0.00 97 1013.1
20260901075406 65 92 0.0 1.0 0.00 0.04 0.00 97 1013.0
20260901074907 65 107 0.0 1.0 0.00 0.04 0.00 97 1013.0
20260901074407 65 98 0.0 0.0 0.00 0.04 0.00 97 1012.9
20260901073913 65 105 0.0 0.0 0.00 0.04 0.00 97 1012.8
20260901073407 65 98 0.0 0.0 0.00 0.04 0.00 97 1012.8
20260901072907 65 190 0.0 2.0 0.00 0.04 0.00 97 1012.8
20260901072409 65 109 0.0 0.0 0.00 0.04 0.00 97 1012.8
20260901071907 65 185 0.0 1.0 0.00 0.04 0.00 97 1012.8
20260901071407 65 112 0.0 1.0 0.00 0.04 0.00 98 1012.8
20260901070914 65 146 0.0 1.0 0.00 0.04 0.00 97 1012.8
20260901070407 65 119 0.0 1.0 0.00 0.04 0.00 97 1012.7
20260901065906 64 125 0.0 1.0 0.00 0.04 0.00 97 1012.6
20260901065413 64 130 0.0 1.0 0.00 0.04 0.00 97 1012.7
20260901064908 64 146 0.0 2.0 0.00 0.04 0.00 97 1012.6
20260901064406 64 94 0.0 1.0 0.00 0.04 0.00 97 1012.5
20260901062407 64 84 0.0 1.0 0.00 0.04 0.00 97 1012.5
20260901061906 64 86 0.0 1.0 0.00 0.04 0.00 97 1012.5
20260901061407 64 111 0.0 1.0 0.00 0.04 0.00 97 1012.5
20260901060913 64 120 0.0 1.0 0.00 0.04 0.00 97 1012.5
20260901060407 64 119 0.0 1.0 0.00 0.04 0.00 97 1012.5
20260901055407 64 99 0.0 1.0 0.00 0.04 0.00 97 1012.4
20260901054907 64 108 0.0 1.0 0.00 0.04 0.00 97 1012.5
20260901054406 64 58 0.0 1.0 0.00 0.04 0.00 97 1012.5
20260901053913 64 106 0.0 1.0 0.00 0.04 0.00 97 1012.5
20260901053406 64 92 0.0 1.0 0.00 0.04 0.00 97 1012.6
20260901052413 64 126 0.0 1.0 0.00 0.04 0.00 97 1012.5
20260901051907 64 124 0.0 0.0 0.00 0.04 0.00 97 1012.6
20260901051407 64 91 0.0 1.0 0.00 0.04 0.00 97 1012.6
20260901050913 63 131 0.0 1.0 0.00 0.04 0.00 97 1012.5
20260901050406 63 106 0.0 1.0 0.00 0.04 0.00 97 1012.5
20260901045907 63 119 0.0 1.0 0.00 0.04 0.00 97 1012.4